| time (UTC) | temp F | wind direction | speed knots | gust knots | rain 1hr in | rain 24hr in | rain mn in | humidity % | barometer mb |
| 20260901201559 | 82 | 136 | 0.9 | 13.0 | 0.00 | 0.00 | 0.00 | 11 | 1013.6 |
| 20260901201056 | 82 | 150 | 7.8 | 13.0 | 0.00 | 0.00 | 0.00 | 11 | 1013.7 |
| 20260901200556 | 81 | 177 | 7.8 | 13.0 | 0.00 | 0.00 | 0.00 | 12 | 1013.7 |
| 20260901200116 | 81 | 150 | 0.0 | 8.7 | 0.00 | 0.00 | 0.00 | 12 | 1013.8 |
| 20260901195555 | 82 | 201 | 4.3 | 9.6 | 0.00 | 0.00 | 0.00 | 12 | 1013.9 |
| 20260901195056 | 82 | 191 | 1.7 | 9.6 | 0.00 | 0.00 | 0.00 | 12 | 1014.0 |
| 20260901194607 | 81 | 88 | 5.2 | 13.0 | 0.00 | 0.00 | 0.00 | 12 | 1014.0 |
| 20260901194056 | 80 | 162 | 7.8 | 13.0 | 0.00 | 0.00 | 0.00 | 12 | 1014.2 |
| 20260901193553 | 80 | 146 | 5.2 | 13.0 | 0.00 | 0.00 | 0.00 | 13 | 1014.2 |
| 20260901193054 | 80 | 132 | 7.0 | 13.0 | 0.00 | 0.00 | 0.00 | 13 | 1014.1 |
| 20260901192557 | 80 | 180 | 6.1 | 13.9 | 0.00 | 0.00 | 0.00 | 13 | 1014.1 |
| 20260901192051 | 79 | 181 | 5.2 | 14.8 | 0.00 | 0.00 | 0.00 | 13 | 1014.3 |
| 20260901191629 | 79 | 140 | 7.0 | 14.8 | 0.00 | 0.00 | 0.00 | 13 | 1014.2 |
| 20260901191054 | 78 | 216 | 4.3 | 14.8 | 0.00 | 0.00 | 0.00 | 13 | 1014.2 |
| 20260901190551 | 78 | 163 | 7.0 | 13.0 | 0.00 | 0.00 | 0.00 | 13 | 1014.3 |
| 20260901190059 | 79 | 194 | 7.8 | 14.8 | 0.00 | 0.00 | 0.00 | 13 | 1014.4 |
| 20260901185551 | 79 | 144 | 4.3 | 11.3 | 0.00 | 0.00 | 0.00 | 13 | 1014.3 |
| 20260901185050 | 79 | 186 | 5.2 | 11.3 | 0.00 | 0.00 | 0.00 | 13 | 1014.3 |
| 20260901184549 | 79 | 220 | 2.6 | 11.3 | 0.00 | 0.00 | 0.00 | 14 | 1014.3 |
| 20260901184050 | 79 | 108 | 6.1 | 13.9 | 0.00 | 0.00 | 0.00 | 14 | 1014.5 |
| 20260901183553 | 79 | 172 | 7.8 | 14.8 | 0.00 | 0.00 | 0.00 | 15 | 1014.3 |
| 20260901183054 | 79 | 211 | 6.1 | 10.4 | 0.00 | 0.00 | 0.00 | 15 | 1014.3 |
| 20260901182549 | 79 | 180 | 3.5 | 8.7 | 0.00 | 0.00 | 0.00 | 15 | 1014.4 |
| 20260901182049 | 80 | 271 | 0.9 | 12.2 | 0.00 | 0.00 | 0.00 | 14 | 1014.5 |
| 20260901181610 | 80 | 76 | 2.6 | 12.2 | 0.00 | 0.00 | 0.00 | 15 | 1014.5 |
| 20260901181053 | 80 | 142 | 2.6 | 8.7 | 0.00 | 0.00 | 0.00 | 15 | 1014.5 |
| 20260901180549 | 80 | 178 | 4.3 | 8.7 | 0.00 | 0.00 | 0.00 | 15 | 1014.6 |
| 20260901180048 | 80 | 84 | 1.7 | 5.2 | 0.00 | 0.00 | 0.00 | 15 | 1014.6 |
| 20260901175546 | 78 | 338 | 0.0 | 6.1 | 0.00 | 0.00 | 0.00 | 16 | 1014.7 |
| 20260901175049 | 76 | 65 | 2.6 | 10.4 | 0.00 | 0.00 | 0.00 | 16 | 1014.7 |
| 20260901174546 | 76 | 250 | 5.2 | 12.2 | 0.00 | 0.00 | 0.00 | 16 | 1014.7 |
| 20260901174049 | 77 | 273 | 6.1 | 10.4 | 0.00 | 0.00 | 0.00 | 16 | 1014.7 |
| 20260901173549 | 77 | 216 | 2.6 | 7.8 | 0.00 | 0.00 | 0.00 | 16 | 1014.8 |
| 20260901173045 | 78 | 350 | 2.6 | 9.6 | 0.00 | 0.00 | 0.00 | 16 | 1014.8 |
| 20260901172547 | 78 | 311 | 2.6 | 7.0 | 0.00 | 0.00 | 0.00 | 15 | 1014.7 |
| 20260901172044 | 77 | 291 | 0.9 | 7.0 | 0.00 | 0.00 | 0.00 | 16 | 1014.6 |
| 20260901171543 | 76 | 5 | 0.9 | 7.0 | 0.00 | 0.00 | 0.00 | 16 | 1014.7 |
| 20260901171041 | 75 | 355 | 2.6 | 8.7 | 0.00 | 0.00 | 0.00 | 16 | 1014.7 |
| 20260901170542 | 74 | 218 | 5.2 | 8.7 | 0.00 | 0.00 | 0.00 | 17 | 1014.8 |
| 20260901170051 | 73 | 230 | 1.7 | 9.6 | 0.00 | 0.00 | 0.00 | 17 | 1014.8 |
| 20260901165538 | 73 | 278 | 5.2 | 12.2 | 0.00 | 0.00 | 0.00 | 18 | 1014.8 |
| 20260901165037 | 73 | 266 | 4.3 | 12.2 | 0.00 | 0.00 | 0.00 | 18 | 1014.8 |
| 20260901164540 | 73 | 234 | 2.6 | 10.4 | 0.00 | 0.00 | 0.00 | 18 | 1014.8 |
| 20260901164036 | 72 | 275 | 6.1 | 13.0 | 0.00 | 0.00 | 0.00 | 17 | 1014.8 |
| 20260901163536 | 72 | 227 | 4.3 | 13.0 | 0.00 | 0.00 | 0.00 | 18 | 1014.8 |
| 20260901163043 | 72 | 240 | 7.0 | 11.3 | 0.00 | 0.00 | 0.00 | 18 | 1014.8 |
| 20260901162536 | 72 | 244 | 4.3 | 10.4 | 0.00 | 0.00 | 0.00 | 18 | 1014.8 |
| 20260901162035 | 71 | 209 | 4.3 | 11.3 | 0.00 | 0.00 | 0.00 | 18 | 1014.9 |
| 20260901161538 | 72 | 319 | 3.5 | 12.2 | 0.00 | 0.00 | 0.00 | 18 | 1015.0 |
| 20260901161035 | 71 | 296 | 6.1 | 11.3 | 0.00 | 0.00 | 0.00 | 18 | 1015.0 |
| 20260901160534 | 71 | 317 | 1.7 | 8.7 | 0.00 | 0.00 | 0.00 | 19 | 1015.0 |
| 20260901160041 | 71 | 240 | 2.6 | 8.7 | 0.00 | 0.00 | 0.00 | 19 | 1015.1 |
| 20260901155534 | 72 | 260 | 2.6 | 7.0 | 0.00 | 0.00 | 0.00 | 18 | 1015.1 |
| 20260901155033 | 71 | 327 | 0.0 | 6.1 | 0.00 | 0.00 | 0.00 | 19 | 1015.1 |
| 20260901154534 | 70 | 234 | 0.0 | 6.1 | 0.00 | 0.00 | 0.00 | 20 | 1015.0 |
| 20260901154032 | 70 | 227 | 0.0 | 6.1 | 0.00 | 0.00 | 0.00 | 20 | 1015.1 |
| 20260901153532 | 70 | 279 | 0.9 | 6.1 | 0.00 | 0.00 | 0.00 | 21 | 1015.1 |
| 20260901153032 | 69 | 192 | 0.0 | 1.7 | 0.00 | 0.00 | 0.00 | 21 | 1015.0 |
| 20260901152534 | 69 | 294 | 0.0 | 3.5 | 0.00 | 0.00 | 0.00 | 22 | 1015.0 |
| 20260901152031 | 69 | 225 | 0.0 | 7.8 | 0.00 | 0.00 | 0.00 | 23 | 1015.0 |
| 20260901151539 | 69 | 267 | 0.9 | 4.3 | 0.00 | 0.00 | 0.00 | 22 | 1015.1 |
| 20260901151031 | 69 | 243 | 0.0 | 6.1 | 0.00 | 0.00 | 0.00 | 22 | 1015.2 |
| 20260901150530 | 69 | 238 | 0.9 | 8.7 | 0.00 | 0.00 | 0.00 | 21 | 1015.1 |
| 20260901150038 | 69 | 279 | 0.0 | 8.7 | 0.00 | 0.00 | 0.00 | 22 | 1015.2 |
| 20260901145530 | 68 | 274 | 1.7 | 6.1 | 0.00 | 0.00 | 0.00 | 22 | 1015.2 |
| 20260901145030 | 68 | 263 | 0.9 | 10.4 | 0.00 | 0.00 | 0.00 | 22 | 1015.2 |
| 20260901144538 | 68 | 252 | 0.9 | 10.4 | 0.00 | 0.00 | 0.00 | 22 | 1015.1 |
| 20260901144028 | 68 | 249 | 2.6 | 12.2 | 0.00 | 0.00 | 0.00 | 23 | 1015.0 |
| 20260901143528 | 67 | 238 | 6.1 | 12.2 | 0.00 | 0.00 | 0.00 | 23 | 1015.0 |
| 20260901143028 | 67 | 245 | 6.1 | 13.9 | 0.00 | 0.00 | 0.00 | 25 | 1015.1 |
| 20260901142527 | 67 | 246 | 5.2 | 13.9 | 0.00 | 0.00 | 0.00 | 25 | 1015.1 |
| 20260901142027 | 66 | 258 | 2.6 | 8.7 | 0.00 | 0.00 | 0.00 | 27 | 1015.0 |
| 20260901141526 | 67 | 283 | 4.3 | 11.3 | 0.00 | 0.00 | 0.00 | 27 | 1015.0 |
| 20260901141026 | 66 | 269 | 5.2 | 12.2 | 0.00 | 0.00 | 0.00 | 26 | 1015.0 |
| 20260901140525 | 66 | 277 | 7.0 | 12.2 | 0.00 | 0.00 | 0.00 | 27 | 1014.9 |
| 20260901140029 | 66 | 266 | 3.5 | 10.4 | 0.00 | 0.00 | 0.00 | 27 | 1014.9 |
| 20260901135524 | 66 | 269 | 5.2 | 11.3 | 0.00 | 0.00 | 0.00 | 27 | 1014.8 |
| 20260901135026 | 65 | 269 | 6.1 | 10.4 | 0.00 | 0.00 | 0.00 | 28 | 1014.8 |
| 20260901134522 | 64 | 290 | 1.7 | 7.0 | 0.00 | 0.00 | 0.00 | 27 | 1014.7 |
| 20260901134026 | 64 | 274 | 0.9 | 7.0 | 0.00 | 0.00 | 0.00 | 29 | 1014.7 |
| 20260901133523 | 64 | 315 | 0.9 | 7.0 | 0.00 | 0.00 | 0.00 | 29 | 1014.6 |
| 20260901133022 | 64 | 290 | 0.0 | 2.6 | 0.00 | 0.00 | 0.00 | 29 | 1014.6 |
| 20260901132524 | 64 | 324 | 0.0 | 3.5 | 0.00 | 0.00 | 0.00 | 29 | 1014.7 |
| 20260901132024 | 64 | 320 | 0.0 | 5.2 | 0.00 | 0.00 | 0.00 | 29 | 1014.7 |
| 20260901131532 | 65 | 327 | 0.0 | 5.2 | 0.00 | 0.00 | 0.00 | 28 | 1014.7 |
| 20260901131021 | 65 | 267 | 0.0 | 3.5 | 0.00 | 0.00 | 0.00 | 28 | 1014.6 |
| 20260901130525 | 66 | 271 | 0.9 | 3.5 | 0.00 | 0.00 | 0.00 | 27 | 1014.5 |
| 20260901130018 | 66 | 261 | 0.0 | 4.3 | 0.00 | 0.00 | 0.00 | 28 | 1014.6 |
| 20260901125517 | 66 | 281 | 0.9 | 4.3 | 0.00 | 0.00 | 0.00 | 28 | 1014.6 |
| 20260901125018 | 65 | 273 | 0.0 | 3.5 | 0.00 | 0.00 | 0.00 | 28 | 1014.5 |
| 20260901124518 | 65 | 268 | 0.9 | 5.2 | 0.00 | 0.00 | 0.00 | 28 | 1014.5 |
| 20260901124016 | 65 | 271 | 1.7 | 6.1 | 0.00 | 0.00 | 0.00 | 28 | 1014.4 |
| 20260901123516 | 65 | 275 | 0.9 | 4.3 | 0.00 | 0.00 | 0.00 | 28 | 1014.4 |
| 20260901123017 | 66 | 277 | 0.0 | 2.6 | 0.00 | 0.00 | 0.00 | 28 | 1014.4 |
| 20260901122515 | 66 | 262 | 0.0 | 5.2 | 0.00 | 0.00 | 0.00 | 27 | 1014.3 |
| 20260901122016 | 66 | 269 | 0.0 | 6.1 | 0.00 | 0.00 | 0.00 | 28 | 1014.3 |
| 20260901121517 | 66 | 329 | 0.9 | 7.0 | 0.00 | 0.00 | 0.00 | 27 | 1014.2 |
| 20260901121013 | 66 | 281 | 2.6 | 7.0 | 0.00 | 0.00 | 0.00 | 27 | 1014.2 |
| 20260901120513 | 66 | 255 | 0.0 | 6.1 | 0.00 | 0.00 | 0.00 | 27 | 1014.2 |
| 20260901120018 | 67 | 290 | 0.0 | 6.1 | 0.00 | 0.00 | 0.00 | 28 | 1014.2 |
| 20260901115512 | 67 | 294 | 1.7 | 7.0 | 0.00 | 0.00 | 0.00 | 28 | 1014.3 |
| 20260901115011 | 67 | 292 | 0.0 | 8.7 | 0.00 | 0.00 | 0.00 | 27 | 1014.2 |
| 20260901114511 | 67 | 260 | 3.5 | 8.7 | 0.00 | 0.00 | 0.00 | 27 | 1014.2 |
| 20260901114111 | 67 | 269 | 0.9 | 10.4 | 0.00 | 0.00 | 0.00 | 28 | 1014.3 |
| 20260901113512 | 67 | 309 | 2.6 | 10.4 | 0.00 | 0.00 | 0.00 | 27 | 1014.2 |
| 20260901113009 | 67 | 300 | 2.6 | 9.6 | 0.00 | 0.00 | 0.00 | 27 | 1014.2 |
| 20260901112508 | 67 | 266 | 4.3 | 8.7 | 0.00 | 0.00 | 0.00 | 27 | 1014.1 |
| 20260901112007 | 66 | 259 | 1.7 | 6.1 | 0.00 | 0.00 | 0.00 | 27 | 1014.1 |
| 20260901111507 | 66 | 259 | 0.9 | 4.3 | 0.00 | 0.00 | 0.00 | 27 | 1013.9 |
| 20260901111006 | 66 | 252 | 0.0 | 2.6 | 0.00 | 0.00 | 0.00 | 28 | 1013.9 |
| 20260901110510 | 67 | 273 | 0.0 | 4.3 | 0.00 | 0.00 | 0.00 | 28 | 1013.8 |
| 20260901110010 | 67 | 269 | 0.0 | 5.2 | 0.00 | 0.00 | 0.00 | 29 | 1013.8 |
| 20260901105506 | 67 | 274 | 1.7 | 6.1 | 0.00 | 0.00 | 0.00 | 29 | 1013.8 |
| 20260901105005 | 67 | 284 | 1.7 | 8.7 | 0.00 | 0.00 | 0.00 | 28 | 1013.9 |
| 20260901104505 | 67 | 296 | 2.6 | 8.7 | 0.00 | 0.00 | 0.00 | 29 | 1013.8 |
| 20260901104005 | 67 | 271 | 1.7 | 7.8 | 0.00 | 0.00 | 0.00 | 29 | 1013.8 |
| 20260901103504 | 67 | 268 | 2.6 | 8.7 | 0.00 | 0.00 | 0.00 | 29 | 1013.9 |
| 20260901103003 | 67 | 289 | 3.5 | 8.7 | 0.00 | 0.00 | 0.00 | 29 | 1013.9 |
| 20260901102507 | 67 | 296 | 3.5 | 8.7 | 0.00 | 0.00 | 0.00 | 28 | 1013.9 |
| 20260901102002 | 67 | 262 | 1.7 | 7.0 | 0.00 | 0.00 | 0.00 | 27 | 1013.9 |
| 20260901101504 | 67 | 271 | 1.7 | 7.0 | 0.00 | 0.00 | 0.00 | 27 | 1013.8 |
| 20260901101003 | 68 | 350 | 0.9 | 6.1 | 0.00 | 0.00 | 0.00 | 29 | 1013.8 |
| 20260901100501 | 68 | 274 | 1.7 | 7.0 | 0.00 | 0.00 | 0.00 | 29 | 1013.9 |
| 20260901100001 | 68 | 294 | 1.7 | 7.8 | 0.00 | 0.00 | 0.00 | 29 | 1013.8 |
| 20260901095502 | 68 | 258 | 1.7 | 8.7 | 0.00 | 0.00 | 0.00 | 30 | 1014.0 |
| 20260901095100 | 68 | 315 | 4.3 | 8.7 | 0.00 | 0.00 | 0.00 | 30 | 1014.0 |
| 20260901094600 | 68 | 221 | 2.6 | 7.8 | 0.00 | 0.00 | 0.00 | 30 | 1013.9 |
| 20260901094101 | 68 | 280 | 2.6 | 8.7 | 0.00 | 0.00 | 0.00 | 30 | 1013.9 |
| 20260901093658 | 68 | 260 | 3.5 | 8.7 | 0.00 | 0.00 | 0.00 | 30 | 1014.0 |
| 20260901093107 | 68 | 275 | 5.2 | 9.6 | 0.00 | 0.00 | 0.00 | 29 | 1013.9 |
| 20260901092557 | 68 | 264 | 4.3 | 8.7 | 0.00 | 0.00 | 0.00 | 28 | 1014.0 |
| 20260901092056 | 68 | 261 | 3.5 | 7.8 | 0.00 | 0.00 | 0.00 | 28 | 1014.0 |
| 20260901091558 | 68 | 279 | 3.5 | 7.0 | 0.00 | 0.00 | 0.00 | 27 | 1013.9 |
| 20260901091055 | 68 | 268 | 2.6 | 7.8 | 0.00 | 0.00 | 0.00 | 26 | 1013.9 |
| 20260901090554 | 69 | 277 | 2.6 | 7.8 | 0.00 | 0.00 | 0.00 | 26 | 1013.9 |
| 20260901090053 | 69 | 263 | 1.7 | 8.7 | 0.00 | 0.00 | 0.00 | 26 | 1013.9 |
| 20260901085552 | 69 | 280 | 3.5 | 8.7 | 0.00 | 0.00 | 0.00 | 25 | 1013.8 |
| 20260901085052 | 69 | 269 | 4.3 | 7.0 | 0.00 | 0.00 | 0.00 | 25 | 1013.8 |
| 20260901084553 | 69 | 279 | 4.3 | 7.0 | 0.00 | 0.00 | 0.00 | 25 | 1013.9 |
| 20260901084051 | 69 | 270 | 2.6 | 6.1 | 0.00 | 0.00 | 0.00 | 25 | 1014.0 |
| 20260901083550 | 69 | 272 | 0.9 | 6.1 | 0.00 | 0.00 | 0.00 | 25 | 1014.0 |
| 20260901083050 | 69 | 273 | 1.7 | 6.1 | 0.00 | 0.00 | 0.00 | 25 | 1013.9 |
| 20260901082549 | 69 | 281 | 3.5 | 7.8 | 0.00 | 0.00 | 0.00 | 25 | 1013.9 |
| 20260901082052 | 69 | 261 | 1.7 | 7.8 | 0.00 | 0.00 | 0.00 | 25 | 1013.9 |
| 20260901081557 | 69 | 327 | 0.9 | 6.1 | 0.00 | 0.00 | 0.00 | 25 | 1013.9 |
| 20260901081051 | 69 | 292 | 1.7 | 6.1 | 0.00 | 0.00 | 0.00 | 25 | 1013.8 |
| 20260901080549 | 69 | 285 | 0.9 | 4.3 | 0.00 | 0.00 | 0.00 | 25 | 1013.8 |
| 20260901080140 | 69 | 290 | 0.9 | 3.5 | 0.00 | 0.00 | 0.00 | 25 | 1013.9 |
| 20260901075550 | 69 | 294 | 0.0 | 3.5 | 0.00 | 0.00 | 0.00 | 25 | 1013.9 |
| 20260901075046 | 70 | 340 | 0.9 | 6.1 | 0.00 | 0.00 | 0.00 | 25 | 1013.8 |
| 20260901074545 | 70 | 340 | 0.9 | 7.8 | 0.00 | 0.00 | 0.00 | 24 | 1013.8 |
| 20260901074045 | 71 | 312 | 2.6 | 7.8 | 0.00 | 0.00 | 0.00 | 25 | 1013.8 |
| 20260901073544 | 71 | 267 | 0.9 | 11.3 | 0.00 | 0.00 | 0.00 | 25 | 1013.7 |
| 20260901073044 | 71 | 306 | 6.1 | 12.2 | 0.00 | 0.00 | 0.00 | 25 | 1013.7 |
| 20260901072544 | 72 | 273 | 5.2 | 12.2 | 0.00 | 0.00 | 0.00 | 24 | 1013.8 |
| 20260901072047 | 71 | 273 | 5.2 | 11.3 | 0.00 | 0.00 | 0.00 | 24 | 1014.0 |
| 20260901071542 | 72 | 272 | 2.6 | 10.4 | 0.00 | 0.00 | 0.00 | 24 | 1013.8 |
| 20260901071041 | 72 | 254 | 5.2 | 10.4 | 0.00 | 0.00 | 0.00 | 24 | 1013.8 |
| 20260901070539 | 72 | 263 | 6.1 | 9.6 | 0.00 | 0.00 | 0.00 | 24 | 1013.8 |
| 20260901070038 | 72 | 290 | 4.3 | 12.2 | 0.00 | 0.00 | 0.00 | 24 | 1013.8 |
| 20260901065539 | 72 | 265 | 4.3 | 13.9 | 0.00 | 0.00 | 0.00 | 24 | 1013.7 |
| 20260901065037 | 72 | 265 | 7.8 | 15.6 | 0.00 | 0.00 | 0.00 | 23 | 1013.7 |
| 20260901064537 | 72 | 271 | 7.8 | 13.9 | 0.00 | 0.00 | 0.00 | 24 | 1013.7 |
| 20260901064037 | 73 | 294 | 6.1 | 12.2 | 0.00 | 0.00 | 0.00 | 23 | 1013.6 |
| 20260901063538 | 73 | 287 | 5.2 | 10.4 | 0.00 | 0.00 | 0.00 | 23 | 1013.7 |
| 20260901063052 | 73 | 284 | 6.1 | 11.3 | 0.00 | 0.00 | 0.00 | 23 | 1013.7 |
| 20260901062536 | 72 | 284 | 5.2 | 9.6 | 0.00 | 0.00 | 0.00 | 23 | 1013.7 |
| 20260901062036 | 73 | 304 | 3.5 | 7.8 | 0.00 | 0.00 | 0.00 | 23 | 1013.7 |
| 20260901061543 | 73 | 266 | 1.7 | 7.8 | 0.00 | 0.00 | 0.00 | 23 | 1013.7 |
| 20260901061036 | 73 | 284 | 2.6 | 7.8 | 0.00 | 0.00 | 0.00 | 23 | 1013.8 |
| 20260901060538 | 73 | 282 | 1.7 | 9.6 | 0.00 | 0.00 | 0.00 | 23 | 1013.7 |
| 20260901060037 | 73 | 201 | 1.7 | 9.6 | 0.00 | 0.00 | 0.00 | 23 | 1013.9 |
| 20260901055536 | 73 | 257 | 4.3 | 8.7 | 0.00 | 0.00 | 0.00 | 23 | 1013.9 |
| 20260901055036 | 73 | 267 | 3.5 | 9.6 | 0.00 | 0.00 | 0.00 | 23 | 1013.9 |
| 20260901054541 | 73 | 229 | 5.2 | 12.2 | 0.00 | 0.00 | 0.00 | 23 | 1013.9 |
| 20260901054036 | 73 | 270 | 5.2 | 11.3 | 0.00 | 0.00 | 0.00 | 23 | 1013.9 |
| 20260901053535 | 74 | 236 | 4.3 | 12.2 | 0.00 | 0.00 | 0.00 | 23 | 1013.9 |
| 20260901053038 | 74 | 240 | 4.3 | 12.2 | 0.00 | 0.00 | 0.00 | 23 | 1013.9 |
| 20260901052533 | 74 | 250 | 2.6 | 10.4 | 0.00 | 0.00 | 0.00 | 23 | 1013.8 |
| 20260901052033 | 74 | 237 | 0.9 | 10.4 | 0.00 | 0.00 | 0.00 | 23 | 1013.8 |
| 20260901051533 | 74 | 304 | 0.9 | 8.7 | 0.00 | 0.00 | 0.00 | 22 | 1013.7 |
| 20260901051033 | 74 | 323 | 3.5 | 8.7 | 0.00 | 0.00 | 0.00 | 22 | 1013.7 |
| 20260901050534 | 74 | 340 | 2.6 | 7.8 | 0.00 | 0.00 | 0.00 | 22 | 1013.6 |
| 20260901050034 | 74 | 254 | 1.7 | 7.8 | 0.00 | 0.00 | 0.00 | 22 | 1013.7 |
| 20260901045537 | 75 | 267 | 0.9 | 8.7 | 0.00 | 0.00 | 0.00 | 22 | 1013.7 |
| 20260901045032 | 75 | 277 | 3.5 | 10.4 | 0.00 | 0.00 | 0.00 | 22 | 1013.6 |
| 20260901044534 | 75 | 360 | 1.7 | 7.8 | 0.00 | 0.00 | 0.00 | 22 | 1013.6 |
| 20260901044032 | 75 | 256 | 0.9 | 7.0 | 0.00 | 0.00 | 0.00 | 22 | 1013.6 |
| 20260901043533 | 75 | 287 | 2.6 | 14.8 | 0.00 | 0.00 | 0.00 | 22 | 1013.5 |
| 20260901043034 | 75 | 200 | 6.1 | 14.8 | 0.00 | 0.00 | 0.00 | 21 | 1013.4 |
| 20260901042532 | 75 | 257 | 6.1 | 12.2 | 0.00 | 0.00 | 0.00 | 21 | 1013.3 |
| 20260901042032 | 76 | 275 | 6.1 | 12.2 | 0.00 | 0.00 | 0.00 | 21 | 1013.3 |
| 20260901041535 | 76 | 215 | 6.1 | 13.9 | 0.00 | 0.00 | 0.00 | 21 | 1013.1 |
| 20260901041031 | 76 | 271 | 6.1 | 13.9 | 0.00 | 0.00 | 0.00 | 21 | 1013.1 |
| 20260901040531 | 76 | 262 | 7.0 | 17.4 | 0.00 | 0.00 | 0.00 | 21 | 1013.0 |
| 20260901040037 | 76 | 267 | 6.1 | 17.4 | 0.00 | 0.00 | 0.00 | 21 | 1013.0 |
| 20260901035630 | 76 | 271 | 7.8 | 13.9 | 0.00 | 0.00 | 0.00 | 21 | 1013.1 |
| 20260901035030 | 77 | 239 | 7.0 | 13.9 | 0.00 | 0.00 | 0.00 | 21 | 1013.0 |
| 20260901034530 | 77 | 229 | 4.3 | 13.9 | 0.00 | 0.00 | 0.00 | 21 | 1013.0 |
| 20260901034029 | 77 | 263 | 7.0 | 13.9 | 0.00 | 0.00 | 0.00 | 21 | 1012.8 |
| 20260901033529 | 77 | 251 | 7.0 | 13.9 | 0.00 | 0.00 | 0.00 | 21 | 1012.8 |
| 20260901033030 | 77 | 242 | 7.0 | 13.9 | 0.00 | 0.00 | 0.00 | 21 | 1012.8 |
| 20260901032530 | 77 | 284 | 5.2 | 10.4 | 0.00 | 0.00 | 0.00 | 21 | 1012.7 |
| 20260901032028 | 77 | 244 | 7.0 | 14.8 | 0.00 | 0.00 | 0.00 | 21 | 1012.7 |
| 20260901031529 | 77 | 292 | 8.7 | 15.6 | 0.00 | 0.00 | 0.00 | 21 | 1012.7 |
| 20260901031029 | 78 | 258 | 7.8 | 13.9 | 0.00 | 0.00 | 0.00 | 21 | 1012.7 |
| 20260901030528 | 78 | 222 | 7.0 | 15.6 | 0.00 | 0.00 | 0.00 | 20 | 1012.7 |
| 20260901030032 | 78 | 229 | 7.8 | 14.8 | 0.00 | 0.00 | 0.00 | 20 | 1012.7 |
| 20260901025528 | 78 | 264 | 4.3 | 13.9 | 0.00 | 0.00 | 0.00 | 20 | 1012.7 |
| 20260901025028 | 79 | 213 | 4.3 | 13.9 | 0.00 | 0.00 | 0.00 | 20 | 1012.8 |
| 20260901024532 | 79 | 276 | 5.2 | 13.9 | 0.00 | 0.00 | 0.00 | 20 | 1012.7 |
| 20260901024030 | 79 | 234 | 7.8 | 20.0 | 0.00 | 0.00 | 0.00 | 20 | 1012.6 |
| 20260901023526 | 80 | 281 | 9.6 | 18.2 | 0.00 | 0.00 | 0.00 | 19 | 1012.6 |
| 20260901023028 | 80 | 286 | 6.1 | 15.6 | 0.00 | 0.00 | 0.00 | 18 | 1012.6 |
| 20260901022528 | 81 | 248 | 5.2 | 12.2 | 0.00 | 0.00 | 0.00 | 17 | 1012.5 |
| 20260901022026 | 81 | 267 | 6.1 | 12.2 | 0.00 | 0.00 | 0.00 | 16 | 1012.4 |
| 20260901021529 | 81 | 262 | 7.0 | 16.5 | 0.00 | 0.00 | 0.00 | 16 | 1012.3 |
| 20260901021026 | 82 | 290 | 8.7 | 16.5 | 0.00 | 0.00 | 0.00 | 16 | 1012.3 |
| 20260901020526 | 82 | 275 | 7.8 | 15.6 | 0.00 | 0.00 | 0.00 | 16 | 1012.1 |
| 20260901020034 | 82 | 298 | 7.0 | 17.4 | 0.00 | 0.00 | 0.00 | 16 | 1012.1 |
| 20260901015526 | 83 | 279 | 8.7 | 17.4 | 0.00 | 0.00 | 0.00 | 16 | 1012.0 |
| 20260901015025 | 83 | 281 | 7.0 | 17.4 | 0.00 | 0.00 | 0.00 | 16 | 1012.0 |
| 20260901014525 | 84 | 278 | 7.8 | 15.6 | 0.00 | 0.00 | 0.00 | 15 | 1012.0 |
| 20260901014025 | 84 | 342 | 5.2 | 13.9 | 0.00 | 0.00 | 0.00 | 15 | 1011.9 |
| 20260901013525 | 84 | 272 | 7.8 | 16.5 | 0.00 | 0.00 | 0.00 | 15 | 1011.9 |
| 20260901013025 | 85 | 284 | 6.1 | 14.8 | 0.00 | 0.00 | 0.00 | 15 | 1011.8 |
| 20260901012528 | 85 | 285 | 7.8 | 14.8 | 0.00 | 0.00 | 0.00 | 14 | 1011.8 |
| 20260901012026 | 86 | 292 | 7.8 | 14.8 | 0.00 | 0.00 | 0.00 | 14 | 1011.8 |
| 20260901011528 | 86 | 332 | 6.1 | 15.6 | 0.00 | 0.00 | 0.00 | 14 | 1011.7 |
| 20260901011027 | 87 | 298 | 5.2 | 15.6 | 0.00 | 0.00 | 0.00 | 13 | 1011.7 |
| 20260901010525 | 88 | 313 | 4.3 | 10.4 | 0.00 | 0.00 | 0.00 | 12 | 1011.5 |
| 20260901010024 | 88 | 341 | 2.6 | 11.3 | 0.00 | 0.00 | 0.00 | 12 | 1011.6 |
| 20260901005524 | 87 | 192 | 5.2 | 11.3 | 0.00 | 0.00 | 0.00 | 12 | 1011.6 |
| 20260901005026 | 88 | 151 | 6.1 | 12.2 | 0.00 | 0.00 | 0.00 | 12 | 1011.5 |
| 20260901004522 | 88 | 184 | 6.1 | 13.0 | 0.00 | 0.00 | 0.00 | 12 | 1011.5 |
| 20260901004022 | 88 | 229 | 7.0 | 13.0 | 0.00 | 0.00 | 0.00 | 11 | 1011.6 |
| 20260901003521 | 88 | 229 | 6.1 | 9.6 | 0.00 | 0.00 | 0.00 | 11 | 1011.5 |
| 20260901003028 | 89 | 244 | 2.6 | 7.8 | 0.00 | 0.00 | 0.00 | 11 | 1011.6 |
| 20260901002521 | 89 | 236 | 2.6 | 15.6 | 0.00 | 0.00 | 0.00 | 11 | 1011.6 |
| 20260901002026 | 89 | 275 | 6.1 | 15.6 | 0.00 | 0.00 | 0.00 | 11 | 1011.7 |
| 20260901001525 | 89 | 226 | 5.2 | 13.0 | 0.00 | 0.00 | 0.00 | 11 | 1011.8 |
| 20260901001020 | 89 | 202 | 6.1 | 13.0 | 0.00 | 0.00 | 0.00 | 11 | 1011.8 |
| 20260901000520 | 89 | 188 | 3.5 | 8.7 | 0.00 | 0.00 | 0.00 | 11 | 1011.8 |
| 20260901000021 | 89 | 207 | 4.3 | 8.7 | 0.00 | 0.00 | 0.00 | 11 | 1011.8 |
| 20260831235518 | 90 | 235 | 4.3 | 10.4 | 0.00 | 0.00 | 0.00 | 11 | 1011.9 |
| 20260831235020 | 90 | 321 | 3.5 | 10.4 | 0.00 | 0.00 | 0.00 | 11 | 1012.0 |
| 20260831234517 | 90 | 301 | 2.6 | 11.3 | 0.00 | 0.00 | 0.00 | 11 | 1012.1 |
| 20260831234016 | 90 | 280 | 6.1 | 9.6 | 0.00 | 0.00 | 0.00 | 11 | 1012.1 |
| 20260831233516 | 90 | 237 | 2.6 | 6.1 | 0.00 | 0.00 | 0.00 | 10 | 1012.2 |
| 20260831233015 | 90 | 163 | 1.7 | 6.1 | 0.00 | 0.00 | 0.00 | 10 | 1012.1 |
| 20260831232515 | 90 | 223 | 1.7 | 7.8 | 0.00 | 0.00 | 0.00 | 11 | 1012.1 |
| 20260831232014 | 91 | 263 | 3.5 | 8.7 | 0.00 | 0.00 | 0.00 | 10 | 1012.1 |
| 20260831231523 | 94 | 202 | 3.5 | 8.7 | 0.00 | 0.00 | 0.00 | 10 | 1012.2 |
| 20260831231013 | 93 | 323 | 1.7 | 7.0 | 0.00 | 0.00 | 0.00 | 9 | 1012.3 |
| 20260831230517 | 92 | 40 | 2.6 | 4.3 | 0.00 | 0.00 | 0.00 | 10 | 1012.3 |
| 20260831230012 | 91 | 263 | 0.9 | 5.2 | 0.00 | 0.00 | 0.00 | 10 | 1012.4 |
| 20260831225511 | 91 | 105 | 1.7 | 7.8 | 0.00 | 0.00 | 0.00 | 10 | 1012.5 |
| 20260831225010 | 92 | 139 | 2.6 | 7.8 | 0.00 | 0.00 | 0.00 | 10 | 1012.7 |
| 20260831224528 | 91 | 5 | 1.7 | 8.7 | 0.00 | 0.00 | 0.00 | 10 | 1012.7 |
| 20260831224013 | 91 | 346 | 2.6 | 8.7 | 0.00 | 0.00 | 0.00 | 10 | 1012.8 |
| 20260831223509 | 90 | 5 | 3.5 | 9.6 | 0.00 | 0.00 | 0.00 | 10 | 1012.9 |
| 20260831223007 | 89 | 355 | 5.2 | 9.6 | 0.00 | 0.00 | 0.00 | 10 | 1013.0 |
| 20260831222507 | 89 | 286 | 3.5 | 12.2 | 0.00 | 0.00 | 0.00 | 10 | 1013.1 |
| 20260831222007 | 89 | 360 | 3.5 | 12.2 | 0.00 | 0.00 | 0.00 | 11 | 1013.1 |
| 20260831221506 | 91 | 258 | 6.1 | 10.4 | 0.00 | 0.00 | 0.00 | 10 | 1013.2 |
| 20260831221005 | 92 | 350 | 3.5 | 9.6 | 0.00 | 0.00 | 0.00 | 10 | 1013.2 |
| 20260831220505 | 91 | 360 | 2.6 | 8.7 | 0.00 | 0.00 | 0.00 | 10 | 1013.4 |
| 20260831220004 | 92 | 278 | 5.2 | 8.7 | 0.00 | 0.00 | 0.00 | 10 | 1013.5 |
| 20260831215504 | 93 | 284 | 1.7 | 7.8 | 0.00 | 0.00 | 0.00 | 10 | 1013.5 |
| 20260831215002 | 93 | 42 | 3.5 | 7.8 | 0.00 | 0.00 | 0.00 | 10 | 1013.6 |
| 20260831214501 | 93 | 347 | 3.5 | 7.8 | 0.00 | 0.00 | 0.00 | 10 | 1013.7 |
| 20260831214103 | 92 | 17 | 4.3 | 7.8 | 0.00 | 0.00 | 0.00 | 10 | 1013.7 |
| 20260831213559 | 93 | 73 | 2.6 | 6.1 | 0.00 | 0.00 | 0.00 | 10 | 1013.9 |
| 20260831213059 | 92 | 56 | 1.7 | 7.8 | 0.00 | 0.00 | 0.00 | 10 | 1014.0 |
| 20260831212600 | 91 | 355 | 0.9 | 7.8 | 0.00 | 0.00 | 0.00 | 10 | 1014.1 |
| 20260831212100 | 90 | 14 | 3.5 | 7.8 | 0.00 | 0.00 | 0.00 | 10 | 1014.2 |
| 20260831211608 | 91 | 262 | 2.6 | 7.0 | 0.00 | 0.00 | 0.00 | 10 | 1014.2 |
| 20260831211056 | 93 | 294 | 0.9 | 7.8 | 0.00 | 0.00 | 0.00 | 9 | 1014.3 |
| 20260831210555 | 93 | 55 | 2.6 | 7.8 | 0.00 | 0.00 | 0.00 | 10 | 1014.5 |
| 20260831210100 | 92 | 71 | 2.6 | 7.8 | 0.00 | 0.00 | 0.00 | 10 | 1014.5 |
| 20260831205554 | 92 | 67 | 2.6 | 10.4 | 0.00 | 0.00 | 0.00 | 10 | 1014.6 |
| 20260831205054 | 93 | 51 | 3.5 | 8.7 | 0.00 | 0.00 | 0.00 | 10 | 1014.6 |
| 20260831204552 | 93 | 345 | 2.6 | 6.1 | 0.00 | 0.00 | 0.00 | 10 | 1014.7 |
| 20260831204051 | 92 | 336 | 1.7 | 5.2 | 0.00 | 0.00 | 0.00 | 10 | 1014.7 |
| 20260831203549 | 91 | 325 | 1.7 | 7.8 | 0.00 | 0.00 | 0.00 | 10 | 1014.9 |
| 20260831203050 | 91 | 292 | 2.6 | 7.8 | 0.00 | 0.00 | 0.00 | 10 | 1014.9 |
| 20260831202547 | 91 | 32 | 1.7 | 7.8 | 0.00 | 0.00 | 0.00 | 10 | 1015.0 |
| 20260831202047 | 90 | 34 | 0.9 | 7.0 | 0.00 | 0.00 | 0.00 | 11 | 1015.2 |